Theta_e
309 309 310 311 311 312 313 313 313 313 311 307 306 306 306 307 307 316 317 316 316 315 322 325 325 332 335 340 344 351 361 361 356 357 356 353 353 351 348 350 346 347 344 344 346
309 308 308 309 309 310 310 311 312 313 313 310 305 306 306 306 318 316 315 314 312 319 323 325 326 332 341 338 339 353 361 358 352 352 354 353 352 351 350 350 351 346 344 345 347
309 309 309 308 308 308 309 310 311 312 313 310 307 306 306 312 321 323 320 314 315 317 318 323 326 335 338 339 341 347 358 354 353 347 349 353 351 349 349 350 349 350 349 346 345
309 309 309 309 308 308 309 310 311 311 313 310 307 306 306 320 326 321 321 316 313 319 318 323 328 339 341 343 339 348 353 352 350 348 350 353 350 351 346 348 345 346 345 345 345
309 309 309 309 308 308 309 310 311 311 312 309 306 307 318 323 323 326 323 315 318 316 319 324 332 336 342 337 345 344 352 352 352 350 351 350 354 353 349 347 342 343 343 344 344
309 309 309 309 308 309 311 311 312 312 312 309 307 313 320 325 324 328 326 319 316 317 318 324 328 333 334 343 350 351 353 353 351 352 349 351 353 351 350 344 343 343 346 347 346
309 309 309 310 311 312 312 312 312 312 314 309 308 321 320 326 326 323 320 318 316 317 318 320 326 331 331 350 350 352 355 355 354 354 354 348 351 352 349 346 347 346 347 346 346
309 309 309 311 312 313 313 313 314 312 313 311 317 322 323 319 321 322 322 322 317 317 317 318 319 328 338 349 350 351 353 358 355 354 353 350 356 351 349 350 348 348 347 348 347
309 309 310 311 313 314 314 316 320 317 317 318 325 323 325 320 322 322 323 322 319 318 317 315 319 329 345 350 350 350 352 355 359 354 354 351 354 350 349 350 349 349 348 348 348
309 309 310 312 313 314 315 319 320 320 322 323 323 326 324 324 322 322 322 317 316 317 317 323 326 332 344 344 343 348 351 353 361 355 353 352 355 350 349 350 348 349 348 348 348
308 308 310 312 314 315 317 320 326 328 326 326 324 324 324 323 318 322 320 316 316 318 322 324 329 331 337 337 339 344 344 351 354 353 351 352 353 352 350 351 350 349 349 348 348
308 308 310 312 314 317 318 324 322 321 327 324 325 325 324 325 323 323 322 321 319 320 323 327 328 330 331 333 335 343 344 350 347 345 347 351 352 354 351 350 349 349 349 349 348
307 308 310 312 315 318 320 321 318 320 327 326 326 325 324 324 323 324 324 322 322 322 323 325 328 327 329 330 332 334 337 345 345 348 344 344 354 354 352 350 349 348 347 347 348
307 308 309 313 318 318 322 320 319 320 328 326 326 325 324 323 322 322 323 322 322 323 324 326 326 328 329 331 332 334 332 340 343 346 343 344 353 347 354 353 353 351 350 347 347
307 308 310 313 318 321 319 319 320 321 327 323 324 323 323 323 322 322 321 322 322 322 323 325 325 325 326 329 329 334 336 341 342 345 344 348 349 353 354 359 355 352 351 348 347
307 307 310 317 317 319 319 318 321 328 324 322 323 324 324 324 322 322 322 322 322 321 322 323 322 324 325 327 325 336 340 343 345 345 345 345 348 347 357 353 355 352 350 350 346
307 308 312 316 321 318 319 323 329 323 321 323 323 323 325 325 324 324 323 322 324 325 325 323 323 325 329 330 327 337 341 346 345 345 344 344 350 343 344 349 350 351 350 349 348
308 312 317 317 317 317 321 329 325 321 322 322 324 324 326 325 325 325 324 324 323 324 325 324 324 328 332 331 331 332 335 335 338 339 342 344 348 345 342 342 347 347 349 347 349
310 318 319 319 318 318 327 327 323 322 322 323 324 327 327 326 326 326 328 327 328 328 330 328 325 326 333 333 335 335 338 332 336 339 340 340 342 341 340 343 345 345 349 348 348
317 322 322 319 319 323 328 323 323 323 321 323 325 326 328 327 327 327 329 328 328 327 328 330 329 325 327 333 335 339 336 336 334 347 341 343 344 342 341 346 343 346 346 349 348
321 323 322 319 321 328 329 324 323 323 323 322 324 326 327 327 327 327 329 329 328 328 328 329 329 329 328 332 334 335 338 337 341 347 344 341 340 346 346 352 348 344 346 348 349
318 322 321 320 328 328 327 325 320 322 321 322 322 322 325 326 326 326 326 328 327 327 328 329 328 329 328 329 329 332 334 336 337 338 336 336 336 350 353 350 349 342 343 345 346
318 324 322 321 328 327 325 323 323 323 322 321 322 323 324 325 326 326 327 328 327 327 329 328 328 329 329 329 331 332 335 334 331 331 333 333 336 349 351 352 351 347 344 346 346
320 323 326 326 326 327 326 325 325 323 322 320 321 324 325 325 324 325 325 326 327 327 327 326 328 329 330 331 331 334 336 337 333 331 329 329 330 341 351 353 351 351 350 348 348
318 323 326 326 324 325 327 326 324 322 320 321 322 322 324 325 325 324 323 322 324 330 328 326 327 328 327 327 329 330 336 336 337 333 335 333 335 333 346 351 350 349 350 350 348
323 326 328 331 330 329 323 327 325 322 322 321 322 322 324 326 325 324 324 324 322 327 326 326 327 327 326 326 329 329 332 335 337 339 339 340 344 347 347 347 349 348 349 351 351
315 319 325 326 330 330 328 325 325 322 321 322 322 323 323 324 323 324 323 323 324 325 325 325 324 327 325 330 330 334 332 333 334 340 340 341 348 348 349 350 346 345 345 345 347
Wind_Speed
12 13 13 12 11 10 9 10 10 9 8 7 6 6 7 8 7 3 6 2 2 4 7 8 6 6 6 2 2 3 1 7 7 3 5 1 8 6 3 11 6 5 8 23 23
13 13 13 12 12 12 11 11 10 10 9 8 6 6 7 8 6 7 5 4 4 9 7 12 8 9 4 3 3 3 3 4 9 7 4 4 6 7 6 10 8 12 19 25 22
12 13 13 13 13 13 13 12 11 11 10 9 7 6 7 6 5 6 3 7 10 7 4 6 5 8 5 3 2 3 3 6 10 10 6 5 5 1 8 8 11 15 22 22 21
11 12 14 14 14 14 14 13 12 11 10 8 6 6 5 3 3 4 4 10 12 5 7 7 7 8 4 2 2 3 5 4 9 7 6 4 2 2 4 5 5 19 23 23 18
12 13 15 15 15 14 14 15 13 12 9 6 5 5 2 5 7 7 2 14 9 7 8 7 9 4 3 1 2 3 5 8 10 11 10 8 9 4 5 7 16 20 19 17 15
13 14 15 16 15 16 15 15 14 11 7 4 4 4 5 5 4 6 11 12 8 8 7 8 4 1 1 1 4 8 5 8 11 12 6 7 4 3 6 13 16 17 16 15 14
13 15 16 17 17 15 15 15 14 11 3 3 3 3 4 8 7 9 7 5 8 4 6 3 3 8 2 6 9 10 10 9 7 10 5 10 2 4 6 12 16 16 14 13 12
14 15 16 18 17 15 15 14 8 3 2 3 3 2 6 6 4 3 6 6 6 4 2 3 4 4 6 6 6 5 5 5 1 6 7 7 12 6 3 9 16 16 14 13 12
14 16 18 19 17 16 14 5 5 4 3 2 1 6 8 4 5 4 3 3 7 6 4 3 5 3 7 11 9 5 1 5 5 3 7 2 3 12 7 7 16 15 15 13 13
15 16 18 18 18 16 7 3 3 3 2 3 5 5 5 6 5 6 5 5 5 10 8 9 6 9 7 9 8 9 6 8 8 4 14 6 6 4 12 5 15 16 15 14 14
16 16 18 18 17 11 5 2 5 5 6 5 5 3 5 7 6 7 7 7 8 9 9 10 9 11 12 5 4 2 7 10 10 9 5 6 8 6 8 9 14 14 17 16 15
17 17 17 17 14 4 4 4 6 5 1 2 1 3 3 3 10 9 7 4 7 9 6 9 12 6 3 6 3 4 3 10 8 4 3 8 6 9 11 8 12 17 15 15 16
18 18 17 16 8 2 3 4 1 4 5 6 1 1 5 8 6 9 9 5 6 8 11 10 6 7 9 9 9 7 4 6 4 7 4 3 8 8 5 9 14 16 17 16 16
18 18 17 14 0 3 2 2 7 5 4 7 6 5 7 4 6 2 4 2 4 4 5 5 6 9 8 9 9 11 5 4 7 9 5 3 2 1 12 15 17 19 16 16 17
19 17 16 10 7 4 2 7 0 4 1 3 6 4 4 3 10 6 3 6 4 7 8 7 10 8 9 11 7 5 4 6 5 3 6 1 5 7 7 10 17 19 19 17 19
21 17 13 5 3 4 4 5 4 7 4 3 3 5 7 5 4 8 7 3 1 4 6 1 2 5 3 3 9 4 6 5 6 5 8 1 7 2 7 14 18 16 23 19 17
21 15 9 5 1 2 5 5 6 2 3 3 1 5 3 7 7 6 7 7 3 7 6 7 11 6 7 7 9 13 13 7 7 7 4 3 6 5 1 7 17 23 23 24 19
18 10 5 7 3 3 6 6 4 2 1 3 1 5 3 4 4 5 6 7 3 6 2 3 10 12 10 11 8 14 14 7 7 4 3 4 4 4 4 6 14 11 21 19 23
13 2 3 2 5 7 7 8 1 2 1 1 6 6 7 6 2 5 2 3 4 5 7 3 4 5 5 5 11 11 9 11 8 6 5 3 6 9 2 8 8 9 17 20 23
5 5 3 2 5 7 7 3 4 1 1 4 4 3 5 4 6 5 4 3 2 4 6 4 5 6 8 7 9 12 6 9 9 5 5 5 3 6 6 4 8 8 12 21 25
3 4 3 6 3 5 8 4 5 5 4 3 3 5 2 3 4 2 3 5 1 2 4 7 6 9 5 9 6 8 11 12 6 8 1 4 4 6 1 2 3 6 9 11 20
4 6 4 4 7 3 8 5 1 7 5 3 3 3 5 2 4 3 3 4 2 4 4 4 6 8 6 6 5 12 11 15 9 10 5 5 0 4 4 1 7 10 5 2 12
3 1 5 4 7 8 5 8 5 8 9 6 4 4 2 4 4 4 3 4 1 3 6 4 4 8 13 10 8 8 7 11 11 15 10 6 1 4 7 7 4 6 5 7 9
3 4 4 5 4 8 10 11 10 6 9 6 3 4 6 7 5 2 5 4 1 2 3 3 8 8 12 7 8 4 8 7 13 11 11 9 13 5 4 8 6 4 6 6 13
2 1 4 6 10 10 5 2 11 8 8 10 6 9 7 4 4 6 5 5 6 6 4 5 10 6 12 10 9 10 10 7 12 10 9 4 8 5 3 1 4 3 4 3 8
4 3 2 4 2 10 8 11 11 11 11 15 9 11 7 7 5 6 6 4 5 6 3 3 7 7 12 11 11 13 12 10 9 7 11 6 9 2 2 4 2 5 7 7 2
3 2 4 5 7 9 11 14 13 9 10 10 12 8 9 7 2 1 1 2 2 6 5 6 8 6 10 3 8 11 15 13 12 6 9 10 6 4 4 3 3 4 7 7 9
Wind_Direction
21 15 15 15 14 3 359 359 353 346 345 343 329 325 323 321 321 270 247 272 184 187 158 167 189 196 211 163 122 128 216 169 149 169 130 66 124 88 107 142 149 113 152 145 145
20 16 15 12 6 4 2 356 346 343 342 345 343 334 336 332 289 241 262 231 167 161 183 189 185 193 200 166 173 260 28 121 148 136 181 140 113 117 143 137 131 125 114 142 154
13 7 4 3 1 357 356 351 347 347 345 341 343 340 337 339 245 82 341 182 160 153 196 209 202 226 233 210 128 57 40 114 138 137 186 115 125 132 161 160 161 157 146 153 161
5 0 356 357 355 351 348 344 345 343 344 344 348 343 332 265 134 40 339 172 171 168 177 185 196 211 237 167 90 124 63 116 148 152 142 111 346 76 160 28 151 152 151 155 167
357 353 352 354 347 342 338 335 334 336 341 347 356 355 331 199 51 346 160 160 154 177 186 192 197 212 203 106 147 144 116 123 147 163 130 132 49 330 110 127 132 143 152 158 171
352 350 350 348 344 341 331 327 327 325 333 349 3 352 263 112 19 82 127 143 164 183 178 202 204 309 115 93 312 106 111 113 149 143 117 123 16 301 98 143 146 156 161 165 168
351 349 349 347 345 335 329 327 325 319 341 13 20 345 256 74 109 110 123 138 167 190 181 182 194 236 184 132 136 137 123 103 144 157 152 123 286 207 132 165 158 170 172 168 170
350 347 345 345 342 336 329 327 339 337 81 53 12 275 73 143 142 141 131 117 162 178 208 229 254 271 249 115 163 198 179 222 66 171 133 165 208 225 201 184 172 174 174 177 176
349 346 342 343 340 337 337 8 44 91 52 60 322 276 96 154 209 183 188 139 157 170 178 230 244 259 179 205 187 196 202 124 114 44 135 159 173 225 213 240 190 183 179 181 180
347 343 341 341 337 340 358 50 77 72 346 250 262 228 150 77 114 147 150 151 149 156 160 196 218 204 214 225 255 129 141 85 125 84 99 196 229 229 225 273 217 192 186 187 189
343 340 339 338 338 343 360 283 220 174 209 2 15 32 110 93 141 165 157 149 149 185 176 197 213 208 197 51 36 82 85 88 101 149 114 162 185 224 196 191 257 212 193 191 195
340 337 338 336 335 352 23 355 38 351 296 133 291 263 234 247 128 153 179 191 191 173 168 181 223 115 195 179 187 173 133 99 106 144 210 174 155 186 190 205 231 234 198 207 193
337 334 337 335 331 352 288 27 320 319 256 127 133 67 122 207 121 140 207 152 170 170 200 209 137 154 196 189 217 212 252 156 75 160 149 156 163 169 203 190 225 245 233 205 201
335 331 335 335 115 315 224 326 308 230 211 105 155 122 166 192 113 119 225 300 192 145 196 220 131 200 208 221 231 248 176 182 155 237 23 325 290 244 175 200 213 216 225 221 212
332 327 329 321 302 264 29 328 284 233 261 80 98 112 154 264 142 151 188 220 183 155 236 112 186 192 220 234 219 298 162 207 223 268 260 132 258 130 165 201 211 220 225 232 211
330 319 322 327 250 265 305 311 250 232 100 114 135 171 183 162 125 143 186 215 68 208 216 216 142 241 291 176 233 148 168 172 230 270 244 137 289 180 172 205 193 221 223 230 234
326 311 293 239 356 275 301 244 237 298 160 88 39 208 172 138 135 181 182 185 241 223 181 166 195 170 224 181 174 198 186 195 222 205 296 126 264 43 338 191 188 191 214 225 219
325 310 273 221 259 277 249 240 260 83 173 110 112 170 181 170 124 153 167 169 180 284 264 256 177 189 184 233 190 213 227 259 247 233 227 141 242 78 267 264 187 215 203 206 219
328 282 223 229 248 224 247 233 171 160 79 246 176 220 144 154 253 196 16 67 57 350 332 278 180 167 194 193 238 170 232 264 278 171 280 131 241 245 203 179 179 210 186 206 210
326 238 150 271 161 215 242 272 143 74 272 234 242 262 201 136 206 227 188 92 125 15 319 64 262 169 131 221 238 263 274 213 232 222 227 101 286 292 192 97 153 203 248 197 202
242 231 80 158 202 228 227 180 169 164 229 263 197 196 236 182 278 200 115 118 355 90 313 309 269 150 186 210 225 184 231 245 127 309 138 216 77 18 44 9 174 210 242 195 202
289 229 134 174 213 223 217 196 90 177 193 189 277 293 257 199 224 241 258 17 41 331 300 34 296 272 237 78 306 286 279 222 236 234 230 327 243 83 60 68 197 168 137 254 240
298 319 178 238 223 207 167 185 221 202 201 194 210 269 229 225 241 243 197 99 58 292 1 14 252 264 236 178 200 240 209 260 275 286 260 277 133 106 101 94 48 142 99 333 295
271 211 165 217 287 277 190 204 210 206 236 210 170 210 205 210 212 236 230 150 166 350 12 284 279 277 290 359 337 220 213 245 253 246 250 216 261 144 121 119 107 107 133 200 242
242 131 355 196 208 223 227 217 214 192 221 201 196 219 207 218 221 230 235 194 193 142 215 276 274 291 283 285 276 273 282 240 256 263 283 21 263 277 207 103 57 33 42 181 220
305 316 194 281 235 217 187 217 233 211 192 195 223 200 212 244 276 308 252 228 265 170 236 248 282 288 280 264 266 259 241 247 264 278 270 256 275 37 178 185 71 27 15 9 308
2 277 281 153 207 219 213 231 226 227 212 235 212 193 211 228 297 32 5 354 22 283 280 286 286 268 279 30 278 252 248 237 256 273 283 268 23 163 182 180 46 29 39 9 356